Погода Преображение

Погода Преображение : погода сейчас, прогноз погоды и архив. Всё, что Вы хотите узнать о погоде Преображение!

Хотите узнать прогноз погоды Преображение? Тогда Вам сюда: Погода Преображение

Поиск расширенной информации на нашем сайте:

Другие новости

Новости СМИ2

Главная страница сайта

Новости сайта

03.07.2017

Напоминаем, что на нашем специализированном сайте Метеоцентр.Азия вы можете получить высокодетализированные автоматические прогнозы погоды по пунктам России, СНГ и мира в авиационном формате (включающие направление и скорость ветра, видимость, явления погоды, количество и форму облачности, нижнюю и верхнюю границу облачности).

Рекомендуем: Правильная регулировка пластикового окна.

Погода Преображение - сегодня

Время (UTC), дата Ветер
(°,м/с) 
Видим.   Явления Облачность Т
(°С)
Тd
(°С)
f(%) Тe
(°С)
Pmin
(гПа)
dP
(гПа)
Po
(мм)
O2
(г/м3)
Тmin Tmax R s Состояние
почвы
06 18.09.17 200 (Ю) 20000 м  в посл. час ливневой дождь  6/6 600 м кучево-дожд. 
[Cb cap]
+20.6 +10.9 54 +23  999.9  -1  746  278           
12 18.09.17 тихо ()   20000 м    ясно 
+17.1 +14 82 +24  1001.8  1.4  748  281           
15 18.09.17 тихо ()   20000 м    ясно 
+16.4 +12.2 76 +21  1001.3  -0.5  747  282           
18 18.09.17 тихо ()   10 км    10/10 600 м кучево-дожд. 
[Cb cap]
+15.9 +13.2 84 +22  1001  -0.3  747  282           
21 18.09.17 340 (С) 20000 м  {гроза, ливн. осадки}  ясно 
+14.6 +12.7 88 +21  1001.4  0.4  747  283  +14    11    влажная 
00 19.09.17 220 (ЮЗ) 20000 м  {гроза, ливн. осадки}  ясно 
+21 +14.5 66 +29  1001.9  0.6  748  277           
03 19.09.17 220 (ЮЗ) 20000 м    ясно 
+22.8 +14.2 58 +30  1001.4  -0.5  747  275           
06 19.09.17 210 (ЮЗ) 20000 м    ясно 
+22.3 +13.1 56 +28  1000.9  -0.6  747  276           
09 19.09.17 150 (ЮВ) 20000 м    4/0 верхняя 
[Cs]
+20.1 +13.5 66 +26  1001.8  748  278    +23.9       
12 19.09.17 020 (С) 20000 м    8/0 верхняя 
[Cs]
+17.1 +13.7 80 +26  1003.5  1.6  749  281           
15 19.09.17 020 (С) 20000 м    ясно 
+15.5 +10.2 71 +16  1003.2  -0.3  749  284           
18 19.09.17 030 (СВ) 20000 м    ясно 
+14.2 +9.1 71 +13  1003.2  -0.1  749  285           
21 19.09.17 040 (СВ) 20000 м  гроза без осадков  10/0 средняя 
[Ac trans]
+16.8 +9.1 60 +17  1001.9  -1.2  748  282  +13.9        влажная 
00 20.09.17 030 (СВ) 10 км  ливневой дождь, в посл. час гроза  10/10 600 м кучево-дожд. 
[Cb cap]
+15.2 +12.7 85 +21  1004.5  2.5  750  284           
03 20.09.17 080 (В) 20000 м  {ливн. осадки}  10/0 верхняя 
[Cs]
+21.2 +12.6 58 +26  1002.7  -1.7  748  277           
06 20.09.17 210 (ЮЗ) 20000 м  {ливн. осадки}  8/6 600 м верхняя 
[Cu med, cong|Ci fib]
+20.4 +12.9 62 +26  1002.3  -0.4  748  278           
09 20.09.17 290 (З) 20000 м  {ливн. осадки}  9/6 600 м средняя 
[Sc diur, vesp|Ac cuf]
+18 +14 77 +26  1004.8  2.5  750  281    +21.6     
12 20.09.17 280 (З) 20000 м  {ливн. осадки}  ясно 
+18.5 +10.2 58 +20  1007.3  2.5  752  282           
15 20.09.17 340 (С) 20000 м    ясно 
+18.5 +9.5 56 +20  1008.3  752  282           
18 20.09.17 тихо ()   20000 м    ясно 
+15.8 +9.9 68 +17  1009.8  1.4  754  285           
21 20.09.17 010 (С) 20000 м    ясно 
+13.8 +9.6 76 +15  1011.1  1.3  755  288  +13.8        влажная 
00 21.09.17 260 (З) 20000 м    ясно 
+19.7 +11.4 59 +24  1011.9  0.9  755  282  +13.6         
03 21.09.17 210 (ЮЗ) 20000 м    1/1 600 м 
[Cu hum]
+22 +13.8 60 +29  1011.3  -0.6  755  279           
06 21.09.17 220 (ЮЗ) 20000 м    3/3 600 м 
[Cu med, cong]
+22.6 +12.6 53 +27  1010.1  -1.1  754  278           
09 21.09.17 080 (В) 20000 м    3/0 средняя, верхняя 
[Ac lent|Ci sp]
+19.9 +12.6 63 +26  1010.8  0.6  754  281    +23.2       
Время (UTC), дата Ветер
(°,м/с) 
Видим.   Явления Облачность Т
(°С)
Тd
(°С)
f(%) Тe
(°С)
Pmin
(гПа)
dP
(гПа)
Po
(мм)
O2
(г/м3)
Тmin Tmax R s Состояние
почвы

Для получения пояснительной информации подведите курсор к названию столбца.

ПОГОДА Преображение - архив

Всё, что Вы хотите узнать о погоде Преображение - удобно и подробно!

Выберите нужную дату (начиная с 1 января 2015* года) и нажмите кнопку "Найти".
Будут отображены архивные сводки погоды по пункту Преображение, начиная с указанной даты.


Отображать данные в формате CSV (для использования в таблицах Excel)


Внимание! Наш архив погоды предназначен исключительно для личного некоммерческого использования в познавательных целях. Если Вам необходимы официальные справки о состоянии погоды (для производственных, юридических, коммерческих и т.п. целей), обращайтесь в органы Росгидромета.

*Примечание: данная дата относится к архиву по метеостанциям СССР (Россия, СНГ, Балтия).
Архив по метеостанциям Зарубежной Европы и Азии (кроме Китая) хранится 10 дней, по другим регионам земного шара (Китай, Африка, Америка, Австралия, Океания) - 1 день.

Преображение - район местоположения метеостанции


Название, широта, долгота, высота метеостанции:
Преображение 42.9°ш. 133.9°д. 43 м над ур. моря [Российская Федерация]

Дополнительная информация

В oтличие oт бoльшинства пoгoдных сайтoв мы публикуем пoдрoбную метеoинфoрмацию в детальнoм прoфессиoнальнoм фoрмате.

Характеристики температуры и влажнoсти вoздуха измеряются на высoте 2 м в тени вдали oт зданий и деревьев.
Скoрoсть ветра измеряется на высoте 10 м (на урoвне рoста челoвека скoрoсть ветра ниже в 1.5-2 раза). Если метеoстанция нахoдится в гoрoде или в лесу, тo скoрoсть ветра занижена на 2-4 м/с пo сравнению с oткрытым местoм. Скoрoсть ветра над акватoриями крупных рек и oзёр, а также на вершинах хoлмoв на 2-5 м/с выше, чем в oбычных услoвиях.
Атмoсфернoе давление в разных тoчках местнoсти мoжет значительнo oтличаться oт давления на метеoстанции, в зависимoсти oт услoвий рельефа (при пoдъёме на 10 м давление пoнижается примернo на 1 мм рт.ст.).